Location: Oshawa
(43.9000°N, 78.8670°W)
Time: 09:29:53
(UTC-04:00)

Amateur Radio Satellites - All Passes

Search period start: 31 October 2014 08:59
Search period end: 01 November 2014 08:59
Location: Oshawa, 43.9000°N, 78.8670°W

Satellite Date Start Highest point End Downlink Frequencies (MHz)
Time Altitude Azimuth
HO-68 31 Oct 09:34:56 09:41:27 36° 96° (E) 09:47:54 435.675 MHz FM
RS-15 31 Oct 09:42:31 09:47:17 14° 265° (W) 09:52:08 29.354 - 29.394 USB, Beacon 29.352 USB
PCSat 31 Oct 09:50:02 09:52:34 13° 32° (NNE) 09:55:05 145.825 MHz
UKube-1 31 Oct 09:53:45 09:56:01 14° 91° (E) 09:58:16 145.840 MHz, 145.915 MHz
Oscar 11 31 Oct 10:27:38 10:31:29 31° 96° (E) 10:35:19 145.825 FM, Beacon 2401.500 USB
SO-50 31 Oct 10:35:52 10:37:56 13° 108° (ESE) 10:40:02 436.795 FM
ISS 31 Oct 10:40:37 10:43:43 38° 140° (SE) 10:46:50 145.800 FM
KITSAT 1 31 Oct 10:43:44 10:50:56 38° 109° (ESE) 10:58:09 435.175 FM
FUNcube-1 31 Oct 10:44:23 10:47:28 20° 93° (E) 10:50:30 145.950 - 145.970 MHz USB
Sapphire 31 Oct 11:10:19 11:15:20 36° 49° (NE) 11:20:20 437.095 MHz 1200 baud AX-25 AFSK
HO-68 31 Oct 11:22:27 11:29:18 49° 295° (WNW) 11:36:06 435.675 MHz FM
UKube-1 31 Oct 11:28:16 11:32:35 59° 287° (WNW) 11:36:51 145.840 MHz, 145.915 MHz
PCSat 31 Oct 11:31:53 11:37:14 55° 54° (NE) 11:42:32 145.825 MHz
ZACube-1 31 Oct 11:36:54 11:41:08 76° 103° (ESE) 11:45:16 437.345 MHz
Oscar 11 31 Oct 12:04:00 12:07:33 25° 293° (WNW) 12:11:05 145.825 FM, Beacon 2401.500 USB
SO-50 31 Oct 12:13:18 12:17:49 76° 306° (NW) 12:22:29 436.795 FM
ISS 31 Oct 12:17:17 12:20:25 38° 338° (NNW) 12:23:34 145.800 FM
FUNcube-1 31 Oct 12:20:07 12:24:00 36° 290° (WNW) 12:27:48 145.950 - 145.970 MHz USB
KITSAT 1 31 Oct 12:38:08 12:46:02 56° 310° (NW) 12:54:00 435.175 FM
Oscar 19 31 Oct 12:44:05 12:47:52 21° 62° (ENE) 12:51:38 437.125 CW, 437.150 USB
JAS-1B 31 Oct 12:45:03 12:49:21 23° 60° (ENE) 12:53:42 435.800 - 435.900 CW/SSB
Sapphire 31 Oct 12:53:47 12:58:46 37° 248° (WSW) 13:03:42 437.095 MHz 1200 baud AX-25 AFSK
UOSAT-12 31 Oct 12:58:07 13:02:15 33° 115° (ESE) 13:06:27 437.025 FM, 437.400 FM
HO-68 31 Oct 13:13:54 13:15:18 11° 316° (NW) 13:16:43 435.675 MHz FM
ZACube-1 31 Oct 13:15:40 13:16:54 11° 300° (WNW) 13:18:08 437.345 MHz
PCSat 31 Oct 13:16:04 13:20:15 23° 253° (WSW) 13:24:25 145.825 MHz
AO-27 31 Oct 13:20:17 13:23:59 20° 61° (ENE) 13:27:42 436.795 MHz FM
Oscar 16 31 Oct 13:29:37 13:34:36 53° 71° (ENE) 13:39:36 437.025 USB, Beacon 2401.1428
Saudisat 1A 31 Oct 13:32:21 13:35:24 18° 38° (NE) 13:38:27 436.775 MHz
Gurwin Techsat 1B 31 Oct 13:36:12 13:39:11 15° 58° (ENE) 13:42:09 435.225 FM
TMSAT-1 31 Oct 13:43:18 13:45:41 13° 57° (ENE) 13:48:05 436.925 FM
ISS 31 Oct 13:55:07 13:57:44 21° 358° (N) 14:00:22 145.800 FM
SO-50 31 Oct 13:56:28 13:59:11 15° 327° (NNW) 14:01:58 436.795 FM
Uribyol 2 31 Oct 14:02:28 14:07:26 47° 69° (ENE) 14:12:26 436.500 FM
AO-Echo 31 Oct 14:05:02 14:09:56 57° 72° (ENE) 14:15:01 ?
AO-7 31 Oct 14:09:56 14:14:21 16° 43° (NE) 14:18:46 29.400 - 29.500 MHz
ITAMSAT 1 31 Oct 14:10:20 14:15:22 51° 70° (ENE) 14:20:27 435.822 SSB
Oscar 19 31 Oct 14:21:48 14:26:49 54° 260° (W) 14:31:52 437.125 CW, 437.150 USB
JAS-1B 31 Oct 14:34:05 14:39:40 53° 260° (W) 14:45:17 435.800 - 435.900 CW/SSB
KITSAT 1 31 Oct 14:37:43 14:43:25 20° 335° (NNW) 14:49:08 435.175 FM
UOSAT-12 31 Oct 14:38:03 14:42:21 35° 314° (NW) 14:46:43 437.025 FM, 437.400 FM
AO-27 31 Oct 14:57:53 15:03:02 60° 259° (WSW) 15:08:13 436.795 MHz FM
Oscar 16 31 Oct 15:10:31 15:14:16 20° 268° (W) 15:18:02 437.025 USB, Beacon 2401.1428
Saudisat 1A 31 Oct 15:11:03 15:15:29 77° 237° (WSW) 15:19:54 436.775 MHz
Gurwin Techsat 1B 31 Oct 15:13:08 15:18:27 83° 256° (WSW) 15:23:48 435.225 FM
TMSAT-1 31 Oct 15:19:29 15:24:48 85° 75° (ENE) 15:30:08 436.925 FM
ISS 31 Oct 15:32:05 15:35:08 32° 19° (NNE) 15:38:10 145.800 FM
Uribyol 2 31 Oct 15:42:59 15:47:08 24° 267° (W) 15:51:18 436.500 FM
AO-Echo 31 Oct 15:45:41 15:49:06 18° 270° (W) 15:52:37 ?
ITAMSAT 1 31 Oct 15:51:14 15:55:09 21° 267° (W) 15:59:06 435.822 SSB
Uosat F 31 Oct 15:57:11 16:01:32 30° 66° (ENE) 16:05:55 435.120 FM
AO-7 31 Oct 15:57:25 16:05:29 61° 65° (ENE) 16:13:36 29.400 - 29.500 MHz
KITSAT 1 31 Oct 16:38:23 16:42:37 15° 6° (N) 16:46:50 435.175 FM
JAS-2 31 Oct 16:53:29 16:59:14 35° 62° (ENE) 17:05:38 435.800 - 435.900 CW/SSB, 435.910 FM
Gurwin Techsat 1B 31 Oct 16:58:17 16:59:12 10° 274° (W) 17:00:08 435.225 FM
TMSAT-1 31 Oct 17:03:08 17:05:23 13° 272° (W) 17:07:39 436.925 FM
Hamsat 31 Oct 17:07:15 17:10:02 18° 65° (ENE) 17:12:49 145.90 MHz
ISS 31 Oct 17:08:41 17:11:58 54° 217° (SW) 17:15:14 145.800 FM
Uosat F 31 Oct 17:35:39 17:40:13 35° 263° (W) 17:44:50 435.120 FM
AO-7 31 Oct 17:51:30 17:58:41 32° 264° (W) 18:05:55 29.400 - 29.500 MHz
OPAL 31 Oct 18:03:24 18:07:45 30° 98° (E) 18:12:04 ?
KITSAT 1 31 Oct 18:34:29 18:41:18 29° 35° (NE) 18:48:04 435.175 FM
JAS-2 31 Oct 18:38:01 18:44:03 47° 264° (W) 18:50:54 435.800 - 435.900 CW/SSB, 435.910 FM
Hamsat 31 Oct 18:41:39 18:45:39 44° 261° (W) 18:49:40 145.90 MHz
SO-50 31 Oct 19:03:33 19:07:29 24° 41° (NE) 19:11:27 436.795 FM
SO-67 31 Oct 19:24:40 19:28:04 72° 76° (ENE) 19:31:31 435.3500 MHz FM
OPAL 31 Oct 19:42:11 19:46:39 34° 295° (WNW) 19:51:05 ?
RS-15 31 Oct 19:44:38 19:51:03 18° 98° (E) 19:57:25 29.354 - 29.394 USB, Beacon 29.352 USB
UOSAT-12 31 Oct 19:47:50 19:49:10 11° 27° (NNE) 19:50:29 437.025 FM, 437.400 FM
STRAND 1 31 Oct 19:59:35 20:04:42 58° 101° (E) 20:09:44 ?
HO-68 31 Oct 20:05:20 20:11:29 32° 60° (ENE) 20:17:39 435.675 MHz FM
AO-40 31 Oct 20:20:02 22:20:22 18° 114° (ESE) 23:26:03 Beacon 2401.320
KITSAT 1 31 Oct 20:29:38 20:37:45 89° 239° (WSW) 20:45:50 435.175 FM
SO-50 31 Oct 20:43:38 20:48:25 60° 240° (WSW) 20:53:13 436.795 FM
UKube-1 31 Oct 20:50:42 20:53:19 16° 62° (ENE) 20:55:58 145.840 MHz, 145.915 MHz
Oscar 10/S400 31 Oct 20:55:56 21:32:44 48° 200° (SSW) 05:00:55 145.825 - 145.975 CW/USB, Beacon 145.810 USB
Oscar 11 31 Oct 21:24:04 21:27:49 30° 68° (ENE) 21:31:35 145.825 FM, Beacon 2401.500 USB
UOSAT-12 31 Oct 21:26:01 21:30:33 44° 48° (NE) 21:35:01 437.025 FM, 437.400 FM
STRAND 1 31 Oct 21:39:46 21:43:26 20° 299° (WNW) 21:47:06 ?
FUNcube-1 31 Oct 21:42:01 21:45:26 22° 66° (ENE) 21:48:48 145.950 - 145.970 MHz USB
MaSat-1 31 Oct 21:50:10 21:52:57 19° 109° (ESE) 21:55:34 437.345 MHz
RS-15 31 Oct 21:50:28 22:01:24 76° 119° (ESE) 22:12:18 29.354 - 29.394 USB, Beacon 29.352 USB
HO-68 31 Oct 21:51:50 21:58:50 56° 258° (WSW) 22:05:55 435.675 MHz FM
UKube-1 31 Oct 22:24:47 22:29:04 56° 259° (W) 22:33:23 145.840 MHz, 145.915 MHz
KITSAT 1 31 Oct 22:26:43 22:32:03 20° 258° (WSW) 22:37:23 435.175 FM
ZACube-1 31 Oct 22:34:10 22:38:41 73° 75° (ENE) 22:43:07 437.345 MHz
Oscar 11 31 Oct 23:00:21 23:03:59 26° 265° (W) 23:07:38 145.825 FM, Beacon 2401.500 USB
UOSAT-12 31 Oct 23:06:37 23:10:29 26° 247° (WSW) 23:14:17 437.025 FM, 437.400 FM
FUNcube-1 31 Oct 23:17:18 23:21:34 40° 262° (W) 23:25:46 145.950 - 145.970 MHz USB
MaSat-1 31 Oct 23:24:45 23:28:12 32° 302° (WNW) 23:31:19 437.345 MHz
RS-15 01 Nov 00:04:43 00:14:46 40° 326° (NW) 00:24:57 29.354 - 29.394 USB, Beacon 29.352 USB
ZACube-1 01 Nov 00:13:56 00:15:32 12° 271° (W) 00:17:07 437.345 MHz
Oscar 16 01 Nov 01:41:06 01:44:18 17° 90° (E) 01:47:29 437.025 USB, Beacon 2401.1428
Sapphire 01 Nov 01:54:35 01:58:45 23° 107° (ESE) 02:02:55 437.095 MHz 1200 baud AX-25 AFSK
AO-Echo 01 Nov 02:11:53 02:15:28 18° 90° (E) 02:19:01 ?
JAS-1B 01 Nov 02:14:01 02:20:45 41° 98° (E) 02:28:38 435.800 - 435.900 CW/SSB
PCSat 01 Nov 02:15:14 02:20:09 37° 112° (ESE) 02:25:07 145.825 MHz
Uribyol 2 01 Nov 02:15:19 02:18:07 14° 89° (E) 02:20:53 436.500 FM
RS-15 01 Nov 02:22:42 02:31:14 25° 360° (N) 02:39:57 29.354 - 29.394 USB, Beacon 29.352 USB
ITAMSAT 1 01 Nov 02:23:05 02:26:18 16° 90° (E) 02:29:29 435.822 SSB
Oscar 19 01 Nov 02:31:53 02:36:50 47° 99° (E) 02:41:45 437.125 CW, 437.150 USB
AO-27 01 Nov 03:09:34 03:14:34 44° 99° (E) 03:19:31 436.795 MHz FM
Oscar 16 01 Nov 03:19:01 03:24:06 64° 288° (WNW) 03:29:09 437.025 USB, Beacon 2401.1428
Gurwin Techsat 1B 01 Nov 03:28:13 03:33:06 36° 97° (E) 03:37:56 435.225 FM
TMSAT-1 01 Nov 03:34:21 03:39:01 30° 95° (E) 03:43:38 436.925 FM
Sapphire 01 Nov 03:36:28 03:41:46 55° 306° (NW) 03:47:07 437.095 MHz 1200 baud AX-25 AFSK
AO-Echo 01 Nov 03:49:23 03:54:39 63° 288° (WNW) 03:59:51 ?
Uribyol 2 01 Nov 03:52:56 03:58:09 74° 287° (WNW) 04:03:18 436.500 FM
PCSat 01 Nov 03:58:35 04:03:34 37° 311° (NW) 04:08:35 145.825 MHz
AO-7 01 Nov 03:59:16 04:04:05 16° 88° (E) 04:08:51 29.400 - 29.500 MHz
ITAMSAT 1 01 Nov 04:01:04 04:06:16 67° 288° (WNW) 04:11:25 435.822 SSB
JAS-1B 01 Nov 04:04:45 04:11:21 46° 293° (WNW) 04:19:09 435.800 - 435.900 CW/SSB
Oscar 19 01 Nov 04:11:52 04:15:52 24° 297° (WNW) 04:19:52 437.125 CW, 437.150 USB
RS-15 01 Nov 04:37:35 04:47:47 39° 34° (NE) 04:58:18 29.354 - 29.394 USB, Beacon 29.352 USB
AO-27 01 Nov 04:49:34 04:53:50 26° 296° (WNW) 04:58:06 436.795 MHz FM
Gurwin Techsat 1B 01 Nov 05:08:18 05:12:59 32° 294° (WNW) 05:17:38 435.225 FM
TMSAT-1 01 Nov 05:14:07 05:18:58 37° 293° (WNW) 05:23:47 436.925 FM
OPAL 01 Nov 05:19:24 05:24:26 66° 70° (ENE) 05:29:27 ?
Saudisat 1A 01 Nov 05:19:47 05:22:54 19° 112° (ESE) 05:26:03 436.775 MHz
Sapphire 01 Nov 05:23:55 05:26:27 13° 327° (NNW) 05:28:59 437.095 MHz 1200 baud AX-25 AFSK
Uribyol 2 01 Nov 05:35:15 05:36:42 11° 305° (NW) 05:38:09 436.500 FM
STRAND 1 01 Nov 05:40:53 05:43:31 14° 58° (ENE) 05:46:09 ?
Uosat F 01 Nov 05:41:19 05:46:22 64° 102° (ESE) 05:51:21 435.120 FM
ITAMSAT 1 01 Nov 05:44:26 05:44:46 10° 306° (NW) 05:45:05 435.822 SSB
JAS-2 01 Nov 05:45:31 05:52:22 32° 92° (E) 05:58:59 435.800 - 435.900 CW/SSB, 435.910 FM
AO-7 01 Nov 05:49:43 05:58:06 80° 107° (ESE) 06:06:28 29.400 - 29.500 MHz
Hamsat 01 Nov 06:25:52 06:29:31 28° 95° (E) 06:33:10 145.90 MHz
RS-15 01 Nov 06:50:09 07:01:19 80° 240° (WSW) 07:12:59 29.354 - 29.394 USB, Beacon 29.352 USB
Saudisat 1A 01 Nov 06:57:50 07:02:07 51° 309° (NW) 07:06:26 436.775 MHz
OPAL 01 Nov 07:00:37 07:03:45 16° 267° (W) 07:06:52 ?
STRAND 1 01 Nov 07:16:50 07:21:59 86° 256° (WSW) 07:27:11 ?
Uosat F 01 Nov 07:21:18 07:24:38 18° 300° (WNW) 07:27:57 435.120 FM
JAS-2 01 Nov 07:30:00 07:37:43 61° 290° (WNW) 07:45:12 435.800 - 435.900 CW/SSB, 435.910 FM
MaSat-1 01 Nov 07:32:17 07:34:38 35° 58° (ENE) 07:36:52 437.345 MHz
AO-7 01 Nov 07:43:30 07:50:04 27° 308° (NW) 07:56:40 29.400 - 29.500 MHz
Hamsat 01 Nov 08:01:49 08:05:24 27° 292° (WNW) 08:08:59 145.90 MHz
SO-67 01 Nov 08:19:14 08:22:41 70° 101° (E) 08:26:06 435.3500 MHz FM
Saudisat 1A 01 Nov 08:41:28 08:42:43 11° 331° (NNW) 08:43:58 436.775 MHz
